Time,TemperatureF,DewpointF,PressureIn,WindDirection,WindDirectionDegrees,WindSpeedMPH,WindSpeedGustMPH,Humidity,HourlyPrecipIn,Conditions,Clouds,dailyrainin,SoftwareType,DateUTC
2013-01-10 00:01:00,20.7,17.7,30.40,East,95,3.0,6.0,88,0.00,,---,0.00,VWS V13.01,2013-01-10 06:01:00,
2013-01-10 00:06:00,20.7,17.7,30.40,ESE,105,2.0,4.0,88,0.00,,---,0.00,VWS V13.01,2013-01-10 06:06:00,
2013-01-10 00:11:00,20.8,17.8,30.40,SE,128,0.0,6.0,88,0.00,,---,0.00,VWS V13.01,2013-01-10 06:11:00,
2013-01-10 00:17:00,20.8,17.8,30.40,SE,129,1.0,2.0,88,0.00,,---,0.00,VWS V13.01,2013-01-10 06:17:00,
2013-01-10 00:22:00,20.8,17.8,30.40,SSE,153,1.0,6.0,88,0.00,,---,0.00,VWS V13.01,2013-01-10 06:22:00,
2013-01-10 00:27:00,20.8,17.8,30.40,SE,137,1.0,6.0,88,0.00,,---,0.00,VWS V13.01,2013-01-10 06:27:00,
2013-01-10 00:32:00,20.9,17.9,30.40,SE,144,1.0,4.0,88,0.00,,---,0.00,VWS V13.01,2013-01-10 06:32:00,
2013-01-10 00:38:00,20.9,17.9,30.40,SE,142,1.0,6.0,88,0.00,,---,0.00,VWS V13.01,2013-01-10 06:38:00,
2013-01-10 00:43:00,20.9,17.9,30.40,SE,144,3.0,7.0,88,0.00,,---,0.00,VWS V13.01,2013-01-10 06:43:00,
2013-01-10 00:48:00,20.8,17.5,30.39,SE,142,3.0,4.0,87,0.00,,---,0.00,VWS V13.01,2013-01-10 06:48:00,
2013-01-10 00:53:00,20.7,17.7,30.39,SE,134,2.0,6.0,88,0.00,,---,0.00,VWS V13.01,2013-01-10 06:53:00,
2013-01-10 00:59:00,20.7,17.7,30.39,SE,134,0.0,6.0,88,0.00,,---,0.00,VWS V13.01,2013-01-10 06:59:00,
2013-01-10 01:04:00,20.6,17.6,30.38,SE,132,3.0,3.0,88,0.00,,---,0.00,VWS V13.01,2013-01-10 07:04:00,
2013-01-10 01:09:00,20.4,17.4,30.38,SSE,165,2.0,6.0,88,0.00,,---,0.00,VWS V13.01,2013-01-10 07:09:00,
2013-01-10 01:14:00,20.3,17.3,30.38,SSE,166,0.0,6.0,88,0.00,,---,0.00,VWS V13.01,2013-01-10 07:14:00,
2013-01-10 01:20:00,20.2,17.2,30.40,SSE,166,2.0,3.0,88,0.00,,---,0.00,VWS V13.01,2013-01-10 07:20:00,
2013-01-10 01:25:00,20.2,17.2,30.40,SSE,165,0.0,3.0,88,0.00,,---,0.00,VWS V13.01,2013-01-10 07:25:00,
2013-01-10 01:30:00,20.1,17.1,30.40,SE,140,0.0,5.0,88,0.00,,---,0.00,VWS V13.01,2013-01-10 07:30:00,
2013-01-10 01:35:00,20.0,17.0,30.40,SE,140,0.0,2.0,88,0.00,,---,0.00,VWS V13.01,2013-01-10 07:35:00,
2013-01-10 01:41:00,19.8,16.8,30.40,SE,140,0.0,3.0,88,0.00,,---,0.00,VWS V13.01,2013-01-10 07:41:00,
2013-01-10 01:46:00,19.8,16.8,30.41,SE,142,4.0,4.0,88,0.00,,---,0.00,VWS V13.01,2013-01-10 07:46:00,
2013-01-10 01:51:00,19.8,16.8,30.41,SSE,153,2.0,6.0,88,0.00,,---,0.00,VWS V13.01,2013-01-10 07:51:00,
2013-01-10 01:56:00,20.0,17.0,30.41,SE,132,5.0,8.0,88,0.00,,---,0.00,VWS V13.01,2013-01-10 07:56:00,
2013-01-10 02:02:00,20.2,17.0,30.41,SE,146,1.0,5.0,87,0.00,,---,0.00,VWS V13.01,2013-01-10 08:02:00,
2013-01-10 02:07:00,20.4,17.2,30.41,SSE,163,3.0,6.0,87,0.00,,---,0.00,VWS V13.01,2013-01-10 08:07:00,
2013-01-10 02:12:00,20.7,17.5,30.41,SSE,163,4.0,12.0,87,0.00,,---,0.00,VWS V13.01,2013-01-10 08:12:00,
2013-01-10 02:17:00,20.9,17.4,30.41,SSE,167,9.0,12.0,86,0.00,,---,0.00,VWS V13.01,2013-01-10 08:17:00,
2013-01-10 02:23:00,21.0,17.8,30.41,SSE,154,3.0,12.0,87,0.00,,---,0.00,VWS V13.01,2013-01-10 08:23:00,
2013-01-10 02:28:00,21.2,17.9,30.41,SSE,151,8.0,12.0,87,0.00,,---,0.00,VWS V13.01,2013-01-10 08:28:00,
2013-01-10 02:33:00,21.3,18.0,30.41,South,174,6.0,13.0,87,0.00,,---,0.00,VWS V13.01,2013-01-10 08:33:00,
2013-01-10 02:38:00,21.4,18.1,30.41,ESE,119,1.0,13.0,87,0.00,,---,0.00,VWS V13.01,2013-01-10 08:38:00,
2013-01-10 02:43:00,21.5,18.2,30.41,South,177,1.0,13.0,87,0.00,,---,0.00,VWS V13.01,2013-01-10 08:43:00,
2013-01-10 02:49:00,21.5,18.2,30.39,South,190,4.0,14.0,87,0.00,,---,0.00,VWS V13.01,2013-01-10 08:49:00,
2013-01-10 02:54:00,21.5,18.5,30.39,South,188,10.0,14.0,88,0.00,,---,0.00,VWS V13.01,2013-01-10 08:54:00,
2013-01-10 02:59:00,21.6,18.6,30.39,SSE,159,5.0,14.0,88,0.00,,---,0.00,VWS V13.01,2013-01-10 08:59:00,
2013-01-10 03:04:00,21.7,19.0,30.38,SSE,159,3.0,11.0,89,0.00,,---,0.00,VWS V13.01,2013-01-10 09:04:00,
2013-01-10 03:10:00,21.8,19.1,30.38,South,169,3.0,14.0,89,0.00,,---,0.00,VWS V13.01,2013-01-10 09:10:00,
2013-01-10 03:15:00,22.2,19.5,30.38,SE,144,9.0,19.0,89,0.00,,---,0.00,VWS V13.01,2013-01-10 09:15:00,
2013-01-10 03:20:00,22.3,19.6,30.37,South,180,9.0,17.0,89,0.00,,---,0.00,VWS V13.01,2013-01-10 09:20:00,
2013-01-10 03:25:00,22.4,19.9,30.37,SE,146,2.0,17.0,90,0.00,,---,0.00,VWS V13.01,2013-01-10 09:25:00,
2013-01-10 03:31:00,22.5,19.8,30.37,SSE,163,5.0,19.0,89,0.00,,---,0.00,VWS V13.01,2013-01-10 09:31:00,
2013-01-10 03:36:00,22.6,19.9,30.37,SSW,202,4.0,14.0,89,0.00,,---,0.00,VWS V13.01,2013-01-10 09:36:00,
2013-01-10 03:41:00,22.7,20.0,30.37,ESE,118,11.0,17.0,89,0.00,,---,0.00,VWS V13.01,2013-01-10 09:41:00,
2013-01-10 03:46:00,22.7,20.0,30.36,SSE,156,3.0,7.0,89,0.00,,---,0.00,VWS V13.01,2013-01-10 09:46:00,
2013-01-10 03:51:00,22.6,19.9,30.36,South,181,11.0,18.0,89,0.00,,---,0.00,VWS V13.01,2013-01-10 09:51:00,
2013-01-10 03:57:00,22.6,20.1,30.36,South,181,3.0,18.0,90,0.00,,---,0.00,VWS V13.01,2013-01-10 09:57:00,
2013-01-10 04:02:00,22.7,20.2,30.37,SSW,206,10.0,15.0,90,0.00,,---,0.00,VWS V13.01,2013-01-10 10:02:00,
2013-01-10 04:07:00,22.7,20.2,30.37,South,184,5.0,17.0,90,0.00,,---,0.00,VWS V13.01,2013-01-10 10:07:00,
2013-01-10 04:13:00,22.7,20.2,30.37,SE,138,6.0,18.0,90,0.00,,---,0.00,VWS V13.01,2013-01-10 10:13:00,
2013-01-10 04:18:00,22.9,20.7,30.36,South,180,4.0,11.0,91,0.00,,---,0.00,VWS V13.01,2013-01-10 10:18:00,
2013-01-10 04:23:00,23.0,20.8,30.36,SSW,210,4.0,18.0,91,0.00,,---,0.00,VWS V13.01,2013-01-10 10:23:00,
2013-01-10 04:28:00,23.3,21.1,30.36,SSW,209,9.0,22.0,91,0.00,,---,0.00,VWS V13.01,2013-01-10 10:28:00,
2013-01-10 04:34:00,23.3,21.1,30.36,SW,225,6.0,12.0,91,0.00,,---,0.00,VWS V13.01,2013-01-10 10:34:00,
2013-01-10 04:39:00,23.3,21.1,30.36,SSE,167,4.0,12.0,91,0.00,,---,0.00,VWS V13.01,2013-01-10 10:39:00,
2013-01-10 04:44:00,23.5,21.3,30.36,SSE,159,2.0,19.0,91,0.00,,---,0.00,VWS V13.01,2013-01-10 10:44:00,
2013-01-10 04:49:00,23.8,21.6,30.35,SW,220,8.0,20.0,91,0.00,,---,0.00,VWS V13.01,2013-01-10 10:49:00,
2013-01-10 04:54:00,23.9,21.4,30.35,SSE,152,4.0,20.0,90,0.00,,---,0.00,VWS V13.01,2013-01-10 10:54:00,
2013-01-10 05:00:00,23.9,21.4,30.35,SSW,196,3.0,20.0,90,0.00,,---,0.00,VWS V13.01,2013-01-10 11:00:00,
2013-01-10 05:05:00,24.0,21.5,30.33,SSE,167,3.0,16.0,90,0.00,,---,0.00,VWS V13.01,2013-01-10 11:05:00,
2013-01-10 05:10:00,24.1,21.3,30.33,SSE,159,14.0,17.0,89,0.00,,---,0.00,VWS V13.01,2013-01-10 11:10:00,
2013-01-10 05:15:00,24.3,21.3,30.33,South,187,13.0,19.0,88,0.00,,---,0.00,VWS V13.01,2013-01-10 11:15:00,
2013-01-10 05:21:00,24.6,21.3,30.33,South,178,4.0,17.0,87,0.00,,---,0.00,VWS V13.01,2013-01-10 11:21:00,
2013-01-10 05:26:00,24.7,21.1,30.33,SSE,165,6.0,18.0,86,0.00,,---,0.00,VWS V13.01,2013-01-10 11:26:00,
2013-01-10 05:31:00,24.8,20.9,30.29,SSE,154,4.0,21.0,85,0.00,,---,0.00,VWS V13.01,2013-01-10 11:31:00,
2013-01-10 05:36:00,24.9,20.8,30.29,South,178,4.0,21.0,84,0.00,,---,0.00,VWS V13.01,2013-01-10 11:36:00,
2013-01-10 05:41:00,24.9,20.8,30.29,South,175,5.0,21.0,84,0.00,,---,0.00,VWS V13.01,2013-01-10 11:41:00,
2013-01-10 05:46:00,25.0,20.6,30.29,SSE,160,4.0,6.0,83,0.00,,---,0.00,VWS V13.01,2013-01-10 11:46:00,
2013-01-10 05:52:00,25.3,20.6,30.29,SSW,210,7.0,18.0,82,0.00,,---,0.00,VWS V13.01,2013-01-10 11:52:00,
2013-01-10 05:57:00,25.6,20.6,30.29,SE,138,9.0,19.0,81,0.00,,---,0.00,VWS V13.01,2013-01-10 11:57:00,
2013-01-10 06:02:00,25.7,20.7,30.29,South,175,4.0,15.0,81,0.00,,---,0.00,VWS V13.01,2013-01-10 12:02:00,
2013-01-10 06:07:00,25.8,20.5,30.29,SE,130,12.0,17.0,80,0.00,,---,0.00,VWS V13.01,2013-01-10 12:07:00,
2013-01-10 06:13:00,26.1,20.5,30.29,SE,145,11.0,18.0,79,0.00,,---,0.00,VWS V13.01,2013-01-10 12:13:00,
2013-01-10 06:18:00,26.1,20.5,30.28,SSE,148,3.0,11.0,79,0.00,,---,0.00,VWS V13.01,2013-01-10 12:18:00,
2013-01-10 06:23:00,26.2,20.6,30.28,SSE,163,7.0,21.0,79,0.00,,---,0.00,VWS V13.01,2013-01-10 12:23:00,
2013-01-10 06:28:00,26.1,20.5,30.28,South,174,6.0,21.0,79,0.00,,---,0.00,VWS V13.01,2013-01-10 12:28:00,
2013-01-10 06:34:00,26.2,20.6,30.29,SE,126,7.0,16.0,79,0.00,,---,0.00,VWS V13.01,2013-01-10 12:34:00,
2013-01-10 06:39:00,26.1,20.8,30.29,SSW,192,5.0,21.0,80,0.00,,---,0.00,VWS V13.01,2013-01-10 12:39:00,
2013-01-10 06:44:00,26.0,20.7,30.29,South,182,6.0,21.0,80,0.00,,---,0.00,VWS V13.01,2013-01-10 12:44:00,
2013-01-10 06:49:00,26.0,20.7,30.28,SSW,193,6.0,20.0,80,0.00,,---,0.00,VWS V13.01,2013-01-10 12:49:00,
2013-01-10 06:55:00,26.0,20.7,30.28,SW,217,7.0,20.0,80,0.00,,---,0.00,VWS V13.01,2013-01-10 12:55:00,
2013-01-10 07:00:00,26.1,21.1,30.28,South,174,6.0,20.0,81,0.00,,---,0.00,VWS V13.01,2013-01-10 13:00:00,
2013-01-10 07:05:00,26.1,21.1,30.28,South,181,10.0,11.0,81,0.00,,---,0.00,VWS V13.01,2013-01-10 13:05:00,
2013-01-10 07:10:00,26.1,21.1,30.28,NE,46,3.0,17.0,81,0.00,,---,0.00,VWS V13.01,2013-01-10 13:10:00,
2013-01-10 07:16:00,26.0,21.3,30.28,South,170,2.0,17.0,82,0.00,,---,0.00,VWS V13.01,2013-01-10 13:16:00,
2013-01-10 07:21:00,26.0,21.3,30.28,SSW,194,13.0,18.0,82,0.00,,---,0.00,VWS V13.01,2013-01-10 13:21:00,
2013-01-10 07:26:00,26.3,21.9,30.28,South,181,10.0,18.0,83,0.00,,---,0.00,VWS V13.01,2013-01-10 13:26:00,
2013-01-10 07:31:00,26.3,21.6,30.28,South,182,5.0,11.0,82,0.00,,---,0.00,VWS V13.01,2013-01-10 13:31:00,
2013-01-10 07:37:00,26.2,21.8,30.28,SSE,159,7.0,22.0,83,0.00,,---,0.00,VWS V13.01,2013-01-10 13:37:00,
2013-01-10 07:42:00,26.4,21.7,30.28,SSE,165,3.0,22.0,82,0.00,,---,0.00,VWS V13.01,2013-01-10 13:42:00,
2013-01-10 07:47:00,26.5,21.8,30.28,ESE,103,14.0,18.0,82,0.00,,---,0.00,VWS V13.01,2013-01-10 13:47:00,
2013-01-10 07:52:00,26.6,21.9,30.28,SSE,157,3.0,18.0,82,0.00,,---,0.00,VWS V13.01,2013-01-10 13:52:00,
2013-01-10 07:58:00,26.7,22.0,30.28,South,175,8.0,18.0,82,0.00,,---,0.00,VWS V13.01,2013-01-10 13:58:00,
2013-01-10 08:03:00,26.9,22.1,30.28,SSW,204,8.0,15.0,82,0.00,,---,0.00,VWS V13.01,2013-01-10 14:03:00,
2013-01-10 08:08:00,27.0,22.2,30.28,SSE,162,13.0,17.0,82,0.00,,---,0.00,VWS V13.01,2013-01-10 14:08:00,
2013-01-10 08:14:00,27.2,22.1,30.28,SSW,198,9.0,17.0,81,0.00,,---,0.00,VWS V13.01,2013-01-10 14:14:00,
2013-01-10 08:19:00,27.2,22.1,30.28,South,171,4.0,13.0,81,0.00,,---,0.00,VWS V13.01,2013-01-10 14:19:00,
2013-01-10 08:24:00,27.1,22.1,30.28,South,178,2.0,17.0,81,0.00,,---,0.00,VWS V13.01,2013-01-10 14:24:00,
2013-01-10 08:29:00,27.2,21.9,30.28,South,178,5.0,17.0,80,0.00,,---,0.00,VWS V13.01,2013-01-10 14:29:00,
2013-01-10 08:35:00,27.4,22.0,30.28,SE,142,7.0,18.0,80,0.00,,---,0.00,VWS V13.01,2013-01-10 14:35:00,
2013-01-10 08:40:00,27.5,22.1,30.28,South,169,6.0,18.0,80,0.00,,---,0.00,VWS V13.01,2013-01-10 14:40:00,
2013-01-10 08:45:00,27.7,22.0,30.25,SSW,205,12.0,18.0,79,0.00,,---,0.00,VWS V13.01,2013-01-10 14:45:00,
2013-01-10 08:50:00,27.9,22.2,30.25,SSW,209,13.0,16.0,79,0.00,,---,0.00,VWS V13.01,2013-01-10 14:50:00,
2013-01-10 08:56:00,28.0,22.3,30.25,SW,219,5.0,16.0,79,0.00,,---,0.00,VWS V13.01,2013-01-10 14:56:00,
2013-01-10 09:01:00,28.3,22.3,30.25,SSE,167,10.0,16.0,78,0.00,,---,0.00,VWS V13.01,2013-01-10 15:01:00,
2013-01-10 09:06:00,28.5,22.5,30.25,South,182,2.0,17.0,78,0.00,,---,0.00,VWS V13.01,2013-01-10 15:06:00,
2013-01-10 09:11:00,29.0,22.7,30.25,SSW,198,5.0,17.0,77,0.00,,---,0.00,VWS V13.01,2013-01-10 15:11:00,
2013-01-10 09:17:00,29.4,23.1,30.25,SSW,200,4.0,11.0,77,0.00,,---,0.00,VWS V13.01,2013-01-10 15:17:00,
2013-01-10 09:22:00,29.8,23.2,30.25,SE,138,6.0,15.0,76,0.00,,---,0.00,VWS V13.01,2013-01-10 15:22:00,
2013-01-10 09:27:00,30.1,23.5,30.25,South,171,5.0,15.0,76,0.00,,---,0.00,VWS V13.01,2013-01-10 15:27:00,
2013-01-10 09:32:00,30.4,23.4,30.24,SSW,202,2.0,14.0,75,0.00,,---,0.00,VWS V13.01,2013-01-10 15:32:00,
2013-01-10 09:38:00,30.9,23.6,30.24,South,188,6.0,14.0,74,0.00,,---,0.00,VWS V13.01,2013-01-10 15:38:00,
2013-01-10 09:43:00,31.4,23.8,30.24,SE,143,13.0,17.0,73,0.00,,---,0.00,VWS V13.01,2013-01-10 15:43:00,
2013-01-10 09:48:00,31.7,23.7,30.22,South,184,9.0,15.0,72,0.00,,---,0.00,VWS V13.01,2013-01-10 15:48:00,
2013-01-10 09:54:00,32.1,24.1,30.22,SSW,205,5.0,19.0,72,0.00,,---,0.00,VWS V13.01,2013-01-10 15:54:00,
2013-01-10 09:59:00,32.5,24.2,30.22,South,191,5.0,19.0,71,0.00,,---,0.00,VWS V13.01,2013-01-10 15:59:00,
2013-01-10 10:04:00,32.9,24.2,30.20,SW,224,3.0,13.0,70,0.00,,---,0.00,VWS V13.01,2013-01-10 16:04:00,
2013-01-10 10:10:00,33.4,24.3,30.20,SSW,193,5.0,14.0,69,0.00,,---,0.00,VWS V13.01,2013-01-10 16:10:00,
2013-01-10 10:15:00,33.8,24.4,30.20,South,171,3.0,23.0,68,0.00,,---,0.00,VWS V13.01,2013-01-10 16:15:00,
2013-01-10 10:20:00,34.2,24.8,30.19,SSW,211,2.0,14.0,68,0.00,,---,0.00,VWS V13.01,2013-01-10 16:20:00,
2013-01-10 10:26:00,34.4,24.6,30.19,SSE,161,6.0,15.0,67,0.00,,---,0.00,VWS V13.01,2013-01-10 16:26:00,
2013-01-10 10:31:00,34.4,24.6,30.19,SSW,209,6.0,18.0,67,0.00,,---,0.00,VWS V13.01,2013-01-10 16:31:00,
2013-01-10 10:36:00,34.8,24.6,30.19,South,184,12.0,18.0,66,0.00,,---,0.00,VWS V13.01,2013-01-10 16:36:00,
2013-01-10 10:41:00,35.2,25.0,30.19,South,183,8.0,20.0,66,0.00,,---,0.00,VWS V13.01,2013-01-10 16:41:00,
2013-01-10 10:47:00,35.4,25.2,30.16,South,169,6.0,9.0,66,0.00,,---,0.00,VWS V13.01,2013-01-10 16:47:00,
2013-01-10 10:52:00,35.8,25.2,30.16,South,169,14.0,19.0,65,0.00,,---,0.00,VWS V13.01,2013-01-10 16:52:00,
2013-01-10 10:57:00,36.4,25.4,30.16,South,171,2.0,19.0,64,0.00,,---,0.00,VWS V13.01,2013-01-10 16:57:00,
2013-01-10 11:02:00,36.8,25.8,30.14,SSW,205,6.0,14.0,64,0.00,,---,0.00,VWS V13.01,2013-01-10 17:02:00,
2013-01-10 11:08:00,37.1,25.3,30.14,SW,219,3.0,25.0,62,0.00,,---,0.00,VWS V13.01,2013-01-10 17:08:00,
2013-01-10 11:13:00,37.4,26.0,30.14,South,188,3.0,25.0,63,0.00,,---,0.00,VWS V13.01,2013-01-10 17:13:00,
2013-01-10 11:18:00,37.7,25.9,30.14,SSW,212,5.0,13.0,62,0.00,,---,0.00,VWS V13.01,2013-01-10 17:18:00,
2013-01-10 11:23:00,37.9,25.3,30.14,SW,225,6.0,13.0,60,0.00,,---,0.00,VWS V13.01,2013-01-10 17:23:00,
2013-01-10 11:29:00,37.9,24.9,30.14,SE,145,9.0,18.0,59,0.00,,---,0.00,VWS V13.01,2013-01-10 17:29:00,
2013-01-10 11:34:00,38.0,25.0,30.14,SSE,168,11.0,11.0,59,0.00,,---,0.00,VWS V13.01,2013-01-10 17:34:00,
2013-01-10 11:39:00,38.2,25.1,30.14,SSW,208,10.0,20.0,59,0.00,,---,0.00,VWS V13.01,2013-01-10 17:39:00,
2013-01-10 11:45:00,38.4,24.9,30.14,SW,216,6.0,20.0,58,0.00,,---,0.00,VWS V13.01,2013-01-10 17:45:00,
2013-01-10 11:50:00,38.6,24.3,30.12,South,171,5.0,20.0,56,0.00,,---,0.00,VWS V13.01,2013-01-10 17:50:00,
2013-01-10 11:55:00,38.7,24.4,30.12,South,188,5.0,20.0,56,0.00,,---,0.00,VWS V13.01,2013-01-10 17:55:00,
2013-01-10 12:00:00,38.8,24.0,30.11,SSW,194,3.0,22.0,55,0.00,,---,0.00,VWS V13.01,2013-01-10 18:00:00,
2013-01-10 12:06:00,38.9,24.1,30.11,SSW,206,9.0,15.0,55,0.00,,---,0.00,VWS V13.01,2013-01-10 18:06:00,
2013-01-10 12:11:00,39.1,24.7,30.11,South,190,3.0,20.0,56,0.00,,---,0.00,VWS V13.01,2013-01-10 18:11:00,
2013-01-10 12:16:00,39.1,24.7,30.09,SSE,148,5.0,20.0,56,0.00,,---,0.00,VWS V13.01,2013-01-10 18:16:00,
2013-01-10 12:21:00,39.3,24.1,30.09,SW,217,12.0,15.0,54,0.00,,---,0.00,VWS V13.01,2013-01-10 18:21:00,
2013-01-10 12:27:00,39.1,23.9,30.09,SSW,197,4.0,15.0,54,0.00,,---,0.00,VWS V13.01,2013-01-10 18:27:00,
2013-01-10 12:32:00,39.3,24.1,30.09,South,185,10.0,13.0,54,0.00,,---,0.00,VWS V13.01,2013-01-10 18:32:00,
2013-01-10 12:37:00,39.0,23.8,30.09,South,188,6.0,16.0,54,0.00,,---,0.00,VWS V13.01,2013-01-10 18:37:00,
2013-01-10 12:42:00,38.9,23.7,30.09,SSE,159,7.0,17.0,54,0.00,,---,0.00,VWS V13.01,2013-01-10 18:42:00,
2013-01-10 12:48:00,39.1,23.9,30.08,South,175,6.0,10.0,54,0.00,,---,0.00,VWS V13.01,2013-01-10 18:48:00,
2013-01-10 12:53:00,39.2,23.5,30.08,SSE,162,14.0,18.0,53,0.00,,---,0.00,VWS V13.01,2013-01-10 18:53:00,
2013-01-10 12:58:00,39.4,22.8,30.08,SSE,167,7.0,18.0,51,0.00,,---,0.00,VWS V13.01,2013-01-10 18:58:00,
2013-01-10 13:04:00,39.5,23.8,30.07,SE,144,6.0,18.0,53,0.00,,---,0.00,VWS V13.01,2013-01-10 19:04:00,
2013-01-10 13:09:00,39.6,23.0,30.07,South,173,4.0,18.0,51,0.00,,---,0.00,VWS V13.01,2013-01-10 19:09:00,
2013-01-10 13:14:00,39.5,22.4,30.07,South,183,5.0,18.0,50,0.00,,---,0.00,VWS V13.01,2013-01-10 19:14:00,
2013-01-10 13:19:00,39.5,22.4,30.06,SSW,193,4.0,15.0,50,0.00,,---,0.00,VWS V13.01,2013-01-10 19:19:00,
2013-01-10 13:25:00,39.3,22.7,30.06,South,182,6.0,23.0,51,0.00,,---,0.00,VWS V13.01,2013-01-10 19:25:00,
2013-01-10 13:30:00,39.6,22.5,30.06,South,177,6.0,23.0,50,0.00,,---,0.00,VWS V13.01,2013-01-10 19:30:00,
2013-01-10 13:35:00,39.6,22.0,30.05,SW,221,5.0,20.0,49,0.00,,---,0.00,VWS V13.01,2013-01-10 19:35:00,
2013-01-10 13:40:00,39.6,22.0,30.05,SSE,165,3.0,20.0,49,0.00,,---,0.00,VWS V13.01,2013-01-10 19:40:00,
2013-01-10 13:46:00,39.2,21.2,30.06,SSE,148,15.0,20.0,48,0.00,,---,0.00,VWS V13.01,2013-01-10 19:46:00,
2013-01-10 13:51:00,39.0,22.0,30.06,South,186,3.0,18.0,50,0.00,,---,0.00,VWS V13.01,2013-01-10 19:51:00,
2013-01-10 13:56:00,38.9,20.9,30.06,South,190,3.0,18.0,48,0.00,,---,0.00,VWS V13.01,2013-01-10 19:56:00,
2013-01-10 14:01:00,38.9,21.9,30.06,South,184,4.0,18.0,50,0.00,,---,0.00,VWS V13.01,2013-01-10 20:01:00,
2013-01-10 14:06:00,38.8,21.8,30.06,South,190,5.0,18.0,50,0.00,,---,0.00,VWS V13.01,2013-01-10 20:06:00,
2013-01-10 14:11:00,38.5,20.5,30.06,South,180,15.0,25.0,48,0.00,,---,0.00,VWS V13.01,2013-01-10 20:11:00,
2013-01-10 14:17:00,38.3,21.3,30.05,South,169,6.0,7.0,50,0.00,,---,0.00,VWS V13.01,2013-01-10 20:17:00,
2013-01-10 14:22:00,38.2,20.7,30.05,South,181,4.0,15.0,49,0.00,,---,0.00,VWS V13.01,2013-01-10 20:22:00,
2013-01-10 14:27:00,38.0,20.5,30.05,South,191,6.0,16.0,49,0.00,,---,0.00,VWS V13.01,2013-01-10 20:27:00,
2013-01-10 14:32:00,37.9,20.5,30.05,South,181,18.0,18.0,49,0.00,,---,0.00,VWS V13.01,2013-01-10 20:32:00,
2013-01-10 14:37:00,37.5,20.6,30.05,South,175,10.0,19.0,50,0.00,,---,0.00,VWS V13.01,2013-01-10 20:37:00,
2013-01-10 14:42:00,37.1,20.2,30.05,South,178,10.0,19.0,50,0.00,,---,0.00,VWS V13.01,2013-01-10 20:42:00,
2013-01-10 14:48:00,36.8,20.4,30.05,South,182,3.0,13.0,51,0.00,,---,0.00,VWS V13.01,2013-01-10 20:48:00,
2013-01-10 14:53:00,36.5,20.6,30.05,SW,221,4.0,14.0,52,0.00,,---,0.00,VWS V13.01,2013-01-10 20:53:00,
2013-01-10 14:58:00,36.4,20.5,30.05,SW,216,4.0,20.0,52,0.00,,---,0.00,VWS V13.01,2013-01-10 20:58:00,
2013-01-10 15:03:00,36.2,20.3,30.05,SE,130,12.0,17.0,52,0.00,,---,0.00,VWS V13.01,2013-01-10 21:03:00,
2013-01-10 15:08:00,36.1,20.6,30.05,South,173,4.0,17.0,53,0.00,,---,0.00,VWS V13.01,2013-01-10 21:08:00,
2013-01-10 15:13:00,36.1,20.6,30.05,SSW,192,2.0,17.0,53,0.00,,---,0.00,VWS V13.01,2013-01-10 21:13:00,
2013-01-10 15:18:00,35.9,20.9,30.05,SSW,196,4.0,18.0,54,0.00,,---,0.00,VWS V13.01,2013-01-10 21:18:00,
2013-01-10 15:23:00,35.9,20.5,30.05,SSE,162,10.0,18.0,53,0.00,,---,0.00,VWS V13.01,2013-01-10 21:23:00,
2013-01-10 15:28:00,35.8,20.4,30.05,SSW,202,12.0,19.0,53,0.00,,---,0.00,VWS V13.01,2013-01-10 21:28:00,
2013-01-10 15:34:00,35.8,20.4,30.05,SSW,203,5.0,20.0,53,0.00,,---,0.00,VWS V13.01,2013-01-10 21:34:00,
2013-01-10 15:39:00,35.8,19.9,30.05,South,178,4.0,20.0,52,0.00,,---,0.00,VWS V13.01,2013-01-10 21:39:00,
2013-01-10 15:44:00,35.7,20.3,30.05,South,190,4.0,20.0,53,0.00,,---,0.00,VWS V13.01,2013-01-10 21:44:00,
2013-01-10 15:49:00,35.6,20.2,30.05,SW,221,6.0,19.0,53,0.00,,---,0.00,VWS V13.01,2013-01-10 21:49:00,
2013-01-10 15:55:00,35.5,20.5,30.05,South,178,11.0,19.0,54,0.00,,---,0.00,VWS V13.01,2013-01-10 21:55:00,
2013-01-10 16:00:00,35.3,20.3,30.05,SSW,206,5.0,19.0,54,0.00,,---,0.00,VWS V13.01,2013-01-10 22:00:00,
2013-01-10 16:05:00,35.2,20.2,30.05,SSE,155,6.0,14.0,54,0.00,,---,0.00,VWS V13.01,2013-01-10 22:05:00,
2013-01-10 16:10:00,34.9,20.4,30.05,SSW,193,11.0,14.0,55,0.00,,---,0.00,VWS V13.01,2013-01-10 22:10:00,
2013-01-10 16:15:00,34.7,20.6,30.05,South,178,4.0,18.0,56,0.00,,---,0.00,VWS V13.01,2013-01-10 22:15:00,
2013-01-10 16:20:00,34.6,20.5,30.05,South,171,9.0,17.0,56,0.00,,---,0.00,VWS V13.01,2013-01-10 22:20:00,
2013-01-10 16:25:00,34.4,20.3,30.05,South,178,4.0,21.0,56,0.00,,---,0.00,VWS V13.01,2013-01-10 22:25:00,
2013-01-10 16:31:00,34.2,20.6,30.05,South,184,3.0,21.0,57,0.00,,---,0.00,VWS V13.01,2013-01-10 22:31:00,
2013-01-10 16:36:00,33.9,20.3,30.05,South,169,5.0,14.0,57,0.00,,---,0.00,VWS V13.01,2013-01-10 22:36:00,
2013-01-10 16:41:00,33.8,20.2,30.05,SSW,212,4.0,14.0,57,0.00,,---,0.00,VWS V13.01,2013-01-10 22:41:00,
2013-01-10 16:46:00,33.9,19.9,30.05,SSE,154,3.0,14.0,56,0.00,,---,0.00,VWS V13.01,2013-01-10 22:46:00,
2013-01-10 16:51:00,34.1,20.1,30.05,South,186,4.0,16.0,56,0.00,,---,0.00,VWS V13.01,2013-01-10 22:51:00,
2013-01-10 16:56:00,34.1,19.6,30.05,SSW,196,4.0,16.0,55,0.00,,---,0.00,VWS V13.01,2013-01-10 22:56:00,
2013-01-10 17:02:00,34.1,19.6,30.03,SE,142,5.0,12.0,55,0.00,,---,0.00,VWS V13.01,2013-01-10 23:02:00,
2013-01-10 17:07:00,34.4,19.5,30.03,South,190,2.0,15.0,54,0.00,,---,0.00,VWS V13.01,2013-01-10 23:07:00,
2013-01-10 17:12:00,34.4,20.3,30.03,South,182,6.0,16.0,56,0.00,,---,0.00,VWS V13.01,2013-01-10 23:12:00,
2013-01-10 17:17:00,34.4,19.5,30.02,SSE,165,6.0,14.0,54,0.00,,---,0.00,VWS V13.01,2013-01-10 23:17:00,
2013-01-10 17:22:00,34.4,19.5,30.02,SSE,153,5.0,14.0,54,0.00,,---,0.00,VWS V13.01,2013-01-10 23:22:00,
2013-01-10 17:27:00,34.4,19.9,30.02,South,187,5.0,16.0,55,0.00,,---,0.00,VWS V13.01,2013-01-10 23:27:00,
2013-01-10 17:33:00,34.4,19.9,30.01,SSE,157,7.0,15.0,55,0.00,,---,0.00,VWS V13.01,2013-01-10 23:33:00,
2013-01-10 17:38:00,34.4,19.9,30.01,SSW,195,5.0,20.0,55,0.00,,---,0.00,VWS V13.01,2013-01-10 23:38:00,
2013-01-10 17:43:00,34.4,19.9,30.01,SE,144,6.0,20.0,55,0.00,,---,0.00,VWS V13.01,2013-01-10 23:43:00,
2013-01-10 17:48:00,34.4,20.3,30.00,SSW,208,7.0,10.0,56,0.00,,---,0.00,VWS V13.01,2013-01-10 23:48:00,
2013-01-10 17:53:00,34.4,19.9,30.00,SSE,163,5.0,11.0,55,0.00,,---,0.00,VWS V13.01,2013-01-10 23:53:00,
2013-01-10 17:58:00,34.4,19.9,30.00,South,179,7.0,15.0,55,0.00,,---,0.00,VWS V13.01,2013-01-10 23:58:00,
2013-01-10 18:04:00,34.4,19.5,29.98,SSW,203,6.0,14.0,54,0.00,,---,0.00,VWS V13.01,2013-01-11 00:04:00,
2013-01-10 18:09:00,34.5,19.6,29.98,South,177,11.0,14.0,54,0.00,,---,0.00,VWS V13.01,2013-01-11 00:09:00,
2013-01-10 18:14:00,34.8,19.4,29.98,SSW,198,6.0,17.0,53,0.00,,---,0.00,VWS V13.01,2013-01-11 00:14:00,
2013-01-10 18:20:00,34.8,19.9,29.96,South,186,4.0,9.0,54,0.00,,---,0.00,VWS V13.01,2013-01-11 00:20:00,
2013-01-10 18:25:00,35.0,20.5,29.96,SSE,167,2.0,17.0,55,0.00,,---,0.00,VWS V13.01,2013-01-11 00:25:00,
2013-01-10 18:30:00,35.2,19.4,29.96,South,172,4.0,17.0,52,0.00,,---,0.00,VWS V13.01,2013-01-11 00:30:00,
2013-01-10 18:35:00,35.4,19.1,29.95,ESE,121,5.0,19.0,51,0.00,,---,0.00,VWS V13.01,2013-01-11 00:35:00,
2013-01-10 18:40:00,35.5,19.2,29.95,South,181,3.0,19.0,51,0.00,,---,0.00,VWS V13.01,2013-01-11 00:40:00,
2013-01-10 18:45:00,35.4,19.1,29.95,South,182,6.0,19.0,51,0.00,,---,0.00,VWS V13.01,2013-01-11 00:45:00,
2013-01-10 18:50:00,35.4,19.1,29.94,SSE,168,4.0,15.0,51,0.00,,---,0.00,VWS V13.01,2013-01-11 00:50:00,
2013-01-10 18:55:00,35.7,18.9,29.94,SSE,161,2.0,16.0,50,0.00,,---,0.00,VWS V13.01,2013-01-11 00:55:00,
2013-01-10 19:01:00,35.6,18.3,29.91,SSE,153,9.0,16.0,49,0.00,,---,0.00,VWS V13.01,2013-01-11 01:01:00,
2013-01-10 19:06:00,35.6,18.8,29.91,SSE,166,4.0,14.0,50,0.00,,---,0.00,VWS V13.01,2013-01-11 01:06:00,
2013-01-10 19:11:00,35.6,18.3,29.91,South,182,5.0,17.0,49,0.00,,---,0.00,VWS V13.01,2013-01-11 01:11:00,
2013-01-10 19:16:00,35.6,18.3,29.90,SSE,164,5.0,17.0,49,0.00,,---,0.00,VWS V13.01,2013-01-11 01:16:00,
2013-01-10 19:21:00,35.7,17.5,29.90,SSW,210,6.0,15.0,47,0.00,,---,0.00,VWS V13.01,2013-01-11 01:21:00,
2013-01-10 19:26:00,35.9,18.1,29.90,South,171,6.0,17.0,48,0.00,,---,0.00,VWS V13.01,2013-01-11 01:26:00,
2013-01-10 19:32:00,35.8,17.6,29.89,South,179,11.0,11.0,47,0.00,,---,0.00,VWS V13.01,2013-01-11 01:32:00,
2013-01-10 19:37:00,35.9,16.6,29.89,SSE,165,7.0,13.0,45,0.00,,---,0.00,VWS V13.01,2013-01-11 01:37:00,
2013-01-10 19:42:00,35.8,17.1,29.89,SSE,167,4.0,13.0,46,0.00,,---,0.00,VWS V13.01,2013-01-11 01:42:00,
2013-01-10 19:47:00,35.9,17.6,29.88,SE,132,6.0,10.0,47,0.00,,---,0.00,VWS V13.01,2013-01-11 01:47:00,
2013-01-10 19:53:00,36.0,16.7,29.88,SE,128,14.0,16.0,45,0.00,,---,0.00,VWS V13.01,2013-01-11 01:53:00,
2013-01-10 19:58:00,36.1,16.8,29.88,SSE,163,4.0,17.0,45,0.00,,---,0.00,VWS V13.01,2013-01-11 01:58:00,
2013-01-10 20:03:00,36.2,16.4,29.87,SSE,147,10.0,12.0,44,0.00,,---,0.00,VWS V13.01,2013-01-11 02:03:00,
2013-01-10 20:09:00,36.4,16.0,29.87,South,178,3.0,18.0,43,0.00,,---,0.00,VWS V13.01,2013-01-11 02:09:00,
2013-01-10 20:14:00,36.2,16.4,29.87,South,171,4.0,18.0,44,0.00,,---,0.00,VWS V13.01,2013-01-11 02:14:00,
2013-01-10 20:19:00,36.5,15.6,29.85,SSW,198,6.0,15.0,42,0.00,,---,0.00,VWS V13.01,2013-01-11 02:19:00,
2013-01-10 20:24:00,36.4,16.0,29.85,South,186,5.0,15.0,43,0.00,,---,0.00,VWS V13.01,2013-01-11 02:24:00,
2013-01-10 20:30:00,36.4,15.0,29.85,South,182,12.0,19.0,41,0.00,,---,0.00,VWS V13.01,2013-01-11 02:30:00,
2013-01-10 20:35:00,36.6,15.1,29.83,SSE,160,3.0,16.0,41,0.00,,---,0.00,VWS V13.01,2013-01-11 02:35:00,
2013-01-10 20:40:00,36.8,15.3,29.83,South,188,7.0,18.0,41,0.00,,---,0.00,VWS V13.01,2013-01-11 02:40:00,
2013-01-10 20:45:00,36.8,15.3,29.83,SSW,196,6.0,18.0,41,0.00,,---,0.00,VWS V13.01,2013-01-11 02:45:00,
2013-01-10 20:50:00,36.8,15.3,29.83,SSE,166,5.0,16.0,41,0.00,,---,0.00,VWS V13.01,2013-01-11 02:50:00,
2013-01-10 20:55:00,36.9,15.4,29.83,SSE,163,2.0,16.0,41,0.00,,---,0.00,VWS V13.01,2013-01-11 02:55:00,
2013-01-10 21:00:00,36.8,15.9,29.81,SSE,167,5.0,16.0,42,0.00,,---,0.00,VWS V13.01,2013-01-11 03:00:00,
2013-01-10 21:06:00,36.9,16.0,29.81,South,169,5.0,17.0,42,0.00,,---,0.00,VWS V13.01,2013-01-11 03:06:00,
2013-01-10 21:11:00,36.8,15.3,29.81,South,184,6.0,17.0,41,0.00,,---,0.00,VWS V13.01,2013-01-11 03:11:00,
2013-01-10 21:16:00,36.8,15.9,29.76,SSE,159,6.0,22.0,42,0.00,,---,0.00,VWS V13.01,2013-01-11 03:16:00,
2013-01-10 21:21:00,36.6,16.2,29.76,SW,217,7.0,19.0,43,0.00,,---,0.00,VWS V13.01,2013-01-11 03:21:00,
2013-01-10 21:26:00,36.5,16.7,29.76,South,178,5.0,19.0,44,0.00,,---,0.00,VWS V13.01,2013-01-11 03:26:00,
2013-01-10 21:31:00,36.4,16.6,29.76,SSE,164,4.0,4.0,44,0.00,,---,0.00,VWS V13.01,2013-01-11 03:31:00,
2013-01-10 21:37:00,36.4,16.0,29.76,SSE,164,5.0,13.0,43,0.00,,---,0.00,VWS V13.01,2013-01-11 03:37:00,
2013-01-10 21:42:00,36.4,17.6,29.76,South,186,10.0,13.0,46,0.00,,---,0.00,VWS V13.01,2013-01-11 03:42:00,
2013-01-10 21:47:00,36.3,17.0,29.76,SSE,166,11.0,11.0,45,0.00,,---,0.00,VWS V13.01,2013-01-11 03:47:00,
2013-01-10 21:52:00,36.1,17.3,29.76,SSE,167,11.0,15.0,46,0.00,,---,0.00,VWS V13.01,2013-01-11 03:52:00,
2013-01-10 21:57:00,36.0,18.2,29.76,SSW,202,6.0,15.0,48,0.00,,---,0.00,VWS V13.01,2013-01-11 03:57:00,
2013-01-10 22:03:00,35.8,18.5,29.75,SSE,167,9.0,12.0,49,0.00,,---,0.00,VWS V13.01,2013-01-11 04:03:00,
2013-01-10 22:08:00,35.5,18.7,29.75,SE,140,5.0,12.0,50,0.00,,---,0.00,VWS V13.01,2013-01-11 04:08:00,
2013-01-10 22:13:00,35.5,18.2,29.75,SSE,166,2.0,16.0,49,0.00,,---,0.00,VWS V13.01,2013-01-11 04:13:00,
2013-01-10 22:18:00,35.4,18.6,29.71,South,176,4.0,9.0,50,0.00,,---,0.00,VWS V13.01,2013-01-11 04:18:00,
2013-01-10 22:23:00,35.5,18.2,29.71,SSW,192,6.0,15.0,49,0.00,,---,0.00,VWS V13.01,2013-01-11 04:23:00,
2013-01-10 22:29:00,35.3,19.9,29.71,SSE,164,3.0,15.0,53,0.00,,---,0.00,VWS V13.01,2013-01-11 04:29:00,
2013-01-10 22:34:00,34.7,22.2,29.69,SSW,194,3.0,12.0,60,0.00,,---,0.00,VWS V13.01,2013-01-11 04:34:00,
2013-01-10 22:39:00,34.1,22.1,29.69,SSE,158,2.0,18.0,61,0.00,,---,0.00,VWS V13.01,2013-01-11 04:39:00,
2013-01-10 22:44:00,33.5,23.7,29.69,SSE,162,6.0,18.0,67,0.00,,---,0.00,VWS V13.01,2013-01-11 04:44:00,
2013-01-10 22:50:00,33.1,24.0,29.69,SSE,159,4.0,11.0,69,0.00,,---,0.00,VWS V13.01,2013-01-11 04:50:00,
2013-01-10 22:55:00,32.8,24.1,29.69,SSE,168,4.0,11.0,70,0.00,,---,0.00,VWS V13.01,2013-01-11 04:55:00,
2013-01-10 23:02:00,32.9,23.5,29.67,SSE,159,5.0,5.0,68,0.00,,---,0.00,VWS V13.01,2013-01-11 05:02:00,
2013-01-10 23:03:00,33.0,23.2,29.67,SSE,161,3.0,9.0,67,0.00,,---,0.00,VWS V13.01,2013-01-11 05:03:00,
2013-01-10 23:09:00,33.5,23.0,29.67,SSE,153,2.0,11.0,65,0.00,,---,0.00,VWS V13.01,2013-01-11 05:09:00,
2013-01-10 23:14:00,33.7,22.1,29.67,SSE,165,2.0,11.0,62,0.00,,---,0.00,VWS V13.01,2013-01-11 05:14:00,
2013-01-10 23:19:00,33.9,21.9,29.64,SSE,153,15.0,15.0,61,0.00,,---,0.00,VWS V13.01,2013-01-11 05:19:00,
2013-01-10 23:24:00,34.3,21.5,29.64,South,188,2.0,15.0,59,0.00,,---,0.00,VWS V13.01,2013-01-11 05:24:00,
2013-01-10 23:30:00,34.4,21.2,29.64,South,180,10.0,15.0,58,0.00,,---,0.00,VWS V13.01,2013-01-11 05:30:00,
2013-01-10 23:35:00,34.7,21.0,29.64,SSE,163,4.0,11.0,57,0.00,,---,0.00,VWS V13.01,2013-01-11 05:35:00,
2013-01-10 23:40:00,34.9,20.4,29.64,SSW,201,5.0,15.0,55,0.00,,---,0.00,VWS V13.01,2013-01-11 05:40:00,
2013-01-10 23:46:00,35.2,20.7,29.62,SSE,164,13.0,17.0,55,0.00,,---,0.00,VWS V13.01,2013-01-11 05:46:00,
2013-01-10 23:51:00,34.9,22.4,29.62,SSE,155,5.0,13.0,60,0.00,,---,0.00,VWS V13.01,2013-01-11 05:51:00,
2013-01-10 23:56:00,34.2,24.4,29.62,SSE,156,10.0,17.0,67,0.01,,---,0.01,VWS V13.01,2013-01-11 05:56:00,